Find Starlink 32651

NORAD ID: 62314 Int'l Des: 2024-239 Owner: SPXS Country: US Constellation: starlink operational
LEOCIRCULAR

Current View

Loading 3D Globe...

About Starlink 32651

Starlink 32651 (NORAD 62314) is a starlink constellation satellite (v2 mini) launched Dec 13, 2024 by SPXS of US. It operates in LEO, CIRCULAR orbit with a mass of 730.00 kg.

Upcoming Passes

Passes for default location (London). Set your location on the main map for personalized predictions.

Altitude History

Loading altitude history...

Two-Line Element Set

1 62314U 24239P 26234.90414236 .00026681 00000-0 79669-3 0 9995
2 62314 53.1569 139.6351 0000658 113.0021 247.1052 15.34451064 94863
Epoch: Aug 22, 2026 • Age: 30 hours

Current Status

Altitude 473.4 km
Apogee / Perigee N/A
Velocity 7.63 km/s
Sub-Earth Point -33.66°S, 83.57°E
Launch Date Dec 13, 2024
Age 1.6 years
Type internet

Technical Details

Classification Payload
Mass 730.00 kg
Dry Mass 700.00 kg
Total Mass 730.00 kg
Length 0.30 m
Diameter 4.10 m
Span 29.00 m
Shape Box + pan
Manufacturer SPXS
Bus Type Starlink V2M
Phase Status In Orbit
Owner/State SPXS/US

Most Searched